Date String (YYYY-MM-DD hh:mm:ss) UTC,Instrument flags,absolute air pressure of the measurement (hPa),sample flow rate (lpm),inlet stack bypass flow (lpm),air temperature of the measurement (°C),ambient temperature measured by the external sensor (°C),aerosol sample conditioner tube jacket temperature (°C),OPC LED temperature (°C),internal box temperature (°C),relative humidity of the measurement (%),span deviation,mass concentration of particles derived from Lorenz-Mie calculation of OPC scattering (μg/m³),mass concentration of particles derived from Lorenz-Mie calculation of OPC scattering (μg/m³),mass concentration of particles derived from Lorenz-Mie calculation of OPC scattering (μg/m³)
DateTimeUTC,F1_M11,P_M11,Q1_M11,Q2_M11,T1_M11,T2_M11,T3_M11,T4_M11,T5_M11,U1_M11,ZSPAN_M11,X0_M11,X2_M11,X1_M11
2023-07-17 23:00:00,SystemResetWarning,0830.5,5.01,000.00,028.7,025.2,000.0,036.8,030.2,18.2,0000.0,0009.33,0003.71,0003.38
2023-07-17 23:01:00,SystemResetWarning,0830.5,5.01,000.00,028.6,025.0,000.0,036.7,030.1,18.5,0000.0,0009.40,0003.71,0003.37
2023-07-17 23:02:00,SystemResetWarning,0830.5,5.00,000.00,028.6,025.4,000.0,036.7,030.0,18.5,0000.0,0009.42,0003.70,0003.35
2023-07-17 23:03:00,SystemResetWarning,0830.7,5.00,000.00,028.6,025.8,000.0,036.8,030.0,18.7,0000.0,0009.18,0003.67,0003.33
2023-07-17 23:04:00,SystemResetWarning,0830.8,5.00,000.00,028.6,026.3,000.0,036.8,030.2,19.1,0000.0,0008.58,0003.66,0003.32
2023-07-17 23:05:00,SystemResetWarning,0830.9,5.01,000.00,028.6,026.7,000.0,036.9,030.3,19.1,0000.0,0008.40,0003.64,0003.31
2023-07-17 23:06:00,SystemResetWarning,0830.9,5.00,000.00,028.7,027.1,000.0,036.9,030.4,19.9,0000.0,0008.42,0003.66,0003.29
2023-07-17 23:07:00,SystemResetWarning,0830.8,5.00,000.00,028.7,027.2,000.0,036.9,030.4,18.8,0000.0,0008.58,0003.65,0003.28
2023-07-17 23:08:00,SystemResetWarning,0831.2,4.98,000.00,028.7,025.9,000.0,036.8,030.2,17.5,0000.0,0009.31,0003.67,0003.28
2023-07-17 23:09:00,SystemResetWarning,0830.8,5.02,000.00,028.6,024.8,000.0,036.8,030.0,15.6,0000.0,0009.12,0003.68,0003.28
2023-07-17 23:10:00,SystemResetWarning,0830.2,5.00,000.00,028.6,025.1,000.0,036.7,029.9,13.3,0000.0,0008.48,0003.68,0003.27
2023-07-17 23:11:00,SystemResetWarning,0830.3,5.00,000.00,028.5,025.5,000.0,036.8,029.9,13.2,0000.0,0008.14,0003.68,0003.27
2023-07-17 23:12:00,SystemResetWarning,0830.2,5.00,000.00,028.5,025.9,000.0,036.8,030.0,13.6,0000.0,0007.81,0003.66,0003.27
2023-07-17 23:13:00,SystemResetWarning,0830.2,5.00,000.00,028.5,026.4,000.0,036.8,030.1,13.0,0000.0,0007.92,0003.68,0003.27
2023-07-17 23:14:00,SystemResetWarning,0830.2,5.00,000.00,028.6,026.8,000.0,036.9,030.2,13.2,0000.0,0008.09,0003.68,0003.27
2023-07-17 23:15:00,SystemResetWarning,0830.2,5.00,000.00,028.6,027.1,000.0,036.9,030.3,13.0,0000.0,0008.48,0003.67,0003.27
2023-07-17 23:16:00,SystemResetWarning,0830.2,4.99,000.00,028.7,027.3,000.0,036.9,030.4,13.1,0000.0,0008.68,0003.69,0003.28
2023-07-17 23:17:00,SystemResetWarning,0830.2,4.99,000.00,028.7,026.1,000.0,036.8,030.3,14.4,0000.0,0008.66,0003.69,0003.28
2023-07-17 23:18:00,SystemResetWarning,0830.2,5.00,000.00,028.6,024.9,000.0,036.8,030.1,15.6,0000.0,0009.16,0003.72,0003.29
2023-07-17 23:19:00,SystemResetWarning,0830.1,5.01,000.00,028.6,025.2,000.0,036.7,030.0,17.2,0000.0,0008.89,0003.73,0003.30
2023-07-17 23:20:00,SystemResetWarning,0830.2,5.01,000.00,028.5,025.6,000.0,036.8,030.0,17.6,0000.0,0010.53,0003.76,0003.32
2023-07-17 23:21:00,SystemResetWarning,0830.2,4.99,000.00,028.6,026.1,000.0,036.8,030.0,18.6,0000.0,0011.04,0003.77,0003.34
2023-07-17 23:22:00,SystemResetWarning,0830.3,4.99,000.00,028.6,026.5,000.0,036.8,030.2,19.2,0000.0,0011.72,0003.79,0003.36
2023-07-17 23:23:00,SystemResetWarning,0830.3,5.00,000.00,028.6,026.9,000.0,036.9,030.3,19.6,0000.0,0012.26,0003.84,0003.38
2023-07-17 23:24:00,SystemResetWarning,0830.3,5.01,000.00,028.7,027.3,000.0,036.9,030.4,20.4,0000.0,0012.67,0003.84,0003.39
2023-07-17 23:25:00,SystemResetWarning,0830.3,5.00,000.00,028.7,027.0,000.0,036.9,030.4,20.6,0000.0,0012.93,0003.85,0003.40
2023-07-17 23:26:00,SystemResetWarning,0830.3,5.00,000.00,028.7,025.4,000.0,036.8,030.2,20.3,0000.0,0012.64,0003.84,0003.40
2023-07-17 23:27:00,SystemResetWarning,0830.2,5.01,000.00,028.6,025.0,000.0,036.7,030.1,19.2,0000.0,0012.49,0003.84,0003.40
2023-07-17 23:28:00,SystemResetWarning,0830.3,5.02,000.00,028.6,025.4,000.0,036.8,030.0,18.7,0000.0,0012.79,0003.82,0003.40
2023-07-17 23:29:00,SystemResetWarning,0830.2,5.00,000.00,028.6,025.8,000.0,036.8,030.1,18.0,0000.0,0013.28,0003.77,0003.39
2023-07-17 23:30:00,SystemResetWarning,0830.2,4.99,000.00,028.6,026.3,000.0,036.8,030.2,18.0,0000.0,0013.63,0003.75,0003.39
2023-07-17 23:31:00,SystemResetWarning,0830.2,4.99,000.00,028.6,026.7,000.0,036.9,030.3,18.2,0000.0,0013.14,0003.77,0003.38
2023-07-17 23:32:00,SystemResetWarning,0830.2,5.00,000.00,028.7,027.1,000.0,036.9,030.4,18.7,0000.0,0012.85,0003.83,0003.38
2023-07-17 23:33:00,SystemResetWarning,0830.3,5.01,000.00,028.7,027.4,000.0,036.9,030.5,18.8,0000.0,0013.30,0003.94,0003.40
2023-07-17 23:34:00,SystemResetWarning,0830.2,4.98,000.00,028.8,026.3,000.0,036.9,030.3,19.6,0000.0,0014.79,0004.01,0003.41
2023-07-17 23:35:00,SystemResetWarning,0830.2,5.01,000.00,028.7,025.0,000.0,036.8,030.1,19.8,0000.0,0015.24,0004.14,0003.42
2023-07-17 23:36:00,SystemResetWarning,0830.2,5.01,000.00,028.6,025.2,000.0,036.8,030.1,19.7,0000.0,0016.06,0004.19,0003.43
2023-07-17 23:37:00,SystemResetWarning,0830.3,4.99,000.00,028.6,025.6,000.0,036.8,030.0,19.2,0000.0,0016.43,0004.25,0003.45
2023-07-17 23:38:00,SystemResetWarning,0830.3,5.00,000.00,028.6,026.1,000.0,036.8,030.1,19.4,0000.0,0016.68,0004.34,0003.47
2023-07-17 23:39:00,SystemResetWarning,0830.3,5.01,000.00,028.6,026.5,000.0,036.9,030.2,19.6,0000.0,0016.58,0004.40,0003.49
2023-07-17 23:40:00,SystemResetWarning,0830.4,5.00,000.00,028.7,027.0,000.0,036.9,030.4,19.6,0000.0,0015.97,0004.46,0003.54
2023-07-17 23:41:00,SystemResetWarning,0830.4,5.01,000.00,028.7,027.4,000.0,036.9,030.5,19.9,0000.0,0015.79,0004.53,0003.57
2023-07-17 23:42:00,SystemResetWarning,0830.4,5.00,000.00,028.8,027.6,000.0,037.0,030.5,19.8,0000.0,0014.91,0004.54,0003.61
2023-07-17 23:43:00,SystemResetWarning,0830.4,4.98,000.00,028.8,026.6,000.0,036.9,030.4,19.4,0000.0,0014.77,0004.55,0003.63
2023-07-17 23:44:00,SystemResetWarning,0830.3,5.01,000.00,028.8,025.2,000.0,036.8,030.2,20.1,0000.0,0014.70,0004.51,0003.65
2023-07-17 23:45:00,SystemResetWarning,0830.3,5.01,000.00,028.7,025.3,000.0,036.8,030.2,19.4,0000.0,0013.21,0004.46,0003.67
2023-07-17 23:46:00,SystemResetWarning,0830.3,4.98,000.00,028.7,025.7,000.0,036.8,030.1,19.2,0000.0,0013.38,0004.38,0003.68
2023-07-17 23:47:00,SystemResetWarning,0830.3,4.99,000.00,028.7,026.1,000.0,036.9,030.2,19.7,0000.0,0012.65,0004.42,0003.70
2023-07-17 23:48:00,SystemResetWarning,0830.4,5.02,000.00,028.7,026.6,000.0,036.9,030.3,19.4,0000.0,0012.83,0004.42,0003.72
2023-07-17 23:49:00,SystemResetWarning,0830.4,5.00,000.00,028.7,027.0,000.0,037.0,030.4,20.2,0000.0,0012.78,0004.39,0003.75
2023-07-17 23:50:00,SystemResetWarning,0830.4,4.99,000.00,028.8,027.4,000.0,037.0,030.5,19.9,0000.0,0013.33,0004.42,0003.76
2023-07-17 23:51:00,SystemResetWarning,0830.4,4.98,000.00,028.8,027.2,000.0,037.0,030.5,20.0,0000.0,0013.75,0004.43,0003.77
2023-07-17 23:52:00,SystemResetWarning,0830.4,5.00,000.00,028.8,025.6,000.0,036.9,030.3,19.3,0000.0,0013.19,0004.44,0003.77
2023-07-17 23:53:00,SystemResetWarning,0830.4,5.01,000.00,028.7,024.9,000.0,036.8,030.2,19.3,0000.0,0012.95,0004.45,0003.77
2023-07-17 23:54:00,SystemResetWarning,0830.6,5.01,000.00,028.7,025.3,000.0,036.8,030.1,19.6,0000.0,0012.64,0004.40,0003.77
2023-07-17 23:55:00,SystemResetWarning,0830.5,4.99,000.00,028.6,025.7,000.0,036.9,030.1,19.5,0000.0,0011.80,0004.41,0003.77
2023-07-17 23:56:00,SystemResetWarning,0830.7,5.01,000.00,028.7,026.2,000.0,036.9,030.2,19.5,0000.0,0011.74,0004.44,0003.78
2023-07-17 23:57:00,SystemResetWarning,0830.8,5.00,000.00,028.7,026.6,000.0,036.9,030.3,19.1,0000.0,0011.53,0004.44,0003.78
2023-07-17 23:58:00,SystemResetWarning,0831.0,5.00,000.00,028.7,027.0,000.0,037.0,030.4,18.9,0000.0,0011.20,0004.42,0003.79
2023-07-17 23:59:00,SystemResetWarning,0831.1,5.00,000.00,028.8,027.4,000.0,037.0,030.5,19.0,0000.0,0010.64,0004.41,0003.79
